CW2972 Weather Reports


time (UTC)temp
C
wind
direction
speed
KPH
gust
KPH
rain 1hr
cm
rain 24hr
cm
rain mn
cm
humidity
%
barometer
mb
20260509190019 24 108 1.6 3.2 0.00 0.00 0.00 62 1011.2
20260509185820 24 140 1.6 4.8 0.00 0.00 0.00 62 1011.2
20260509185620 24 222 1.6 6.4 0.00 0.00 0.00 63 1011.2
20260509185420 24 224 1.6 6.4 0.00 0.00 0.00 63 1011.2
20260509185219 23 223 1.6 6.4 0.00 0.00 0.00 62 1011.3
20260509185020 23 222 1.6 6.4 0.00 0.00 0.00 61 1011.3
20260509184820 23 222 1.6 6.4 0.00 0.00 0.00 61 1011.2
20260509184620 23 221 1.6 6.4 0.00 0.00 0.00 61 1011.2
20260509184419 23 220 1.6 6.4 0.00 0.00 0.00 63 1011.2
20260509184219 23 222 1.6 6.4 0.00 0.00 0.00 61 1011.1
20260509184019 23 234 0.0 4.8 0.00 0.00 0.00 63 1011.1
20260509183819 23 240 0.0 4.8 0.00 0.00 0.00 61 1011.1
20260509183620 23 245 0.0 4.8 0.00 0.00 0.00 61 1011.1
20260509183420 23 255 0.0 4.8 0.00 0.00 0.00 62 1011.1
20260509183242 23 259 0.0 4.8 0.00 0.00 0.00 61 1011.1
20260509183040 23 236 0.0 4.8 0.00 0.00 0.00 63 1011.0
20260509182820 23 222 0.0 4.8 0.00 0.00 0.00 63 1011.0
20260509182619 23 211 0.0 4.8 0.00 0.00 0.00 64 1011.0
20260509182420 23 191 0.0 4.8 0.00 0.00 0.00 63 1011.0
20260509182219 23 180 0.0 4.8 0.00 0.00 0.00 64 1011.0
20260509182020 23 146 0.0 1.6 0.00 0.00 0.00 65 1011.0
20260509181841 23 136 1.6 1.6 0.00 0.00 0.00 64 1011.0
20260509181620 23 209 1.6 3.2 0.00 0.00 0.00 66 1011.1
20260509181419 23 263 1.6 3.2 0.00 0.00 0.00 66 1011.1
20260509181219 23 278 1.6 8.0 0.00 0.00 0.00 65 1011.1
20260509181019 23 281 1.6 8.0 0.00 0.00 0.00 63 1011.1
20260509180819 23 278 0.0 8.0 0.00 0.00 0.00 64 1011.1
20260509180619 23 266 0.0 8.0 0.00 0.00 0.00 64 1011.2
20260509180419 23 258 0.0 8.0 0.00 0.00 0.00 65 1011.2
20260509180241 23 237 0.0 4.8 0.00 0.00 0.00 64 1011.2
20260509180020 23 233 0.0 4.8 0.00 0.00 0.00 66 1011.2
20260509175820 23 228 0.0 4.8 0.00 0.00 0.00 65 1011.2
20260509175619 23 336 0.0 4.8 0.00 0.00 0.00 65 1011.2
20260509175420 23 357 0.0 3.2 0.00 0.00 0.00 65 1011.2
20260509175240 23 355 0.0 3.2 0.00 0.00 0.00 65 1011.2
20260509175020 23 322 0.0 3.2 0.00 0.00 0.00 65 1011.2
20260509174819 23 262 0.0 3.2 0.00 0.00 0.00 64 1011.1
20260509174619 23 231 0.0 3.2 0.00 0.00 0.00 63 1011.2
20260509174441 23 224 0.0 3.2 0.00 0.00 0.00 63 1011.2
20260509174220 23 224 0.0 3.2 0.00 0.00 0.00 63 1011.2
20260509174020 23 229 0.0 3.2 0.00 0.00 0.00 65 1011.3
20260509173841 23 230 1.6 1.6 0.00 0.00 0.00 64 1011.2
20260509173619 23 248 1.6 3.2 0.00 0.00 0.00 65 1011.3
20260509173420 23 60 1.6 8.0 0.00 0.00 0.00 66 1011.3
20260509173220 22 58 1.6 8.0 0.00 0.00 0.00 65 1011.3
20260509173019 23 63 1.6 8.0 0.00 0.00 0.00 65 1011.3
20260509172840 23 63 1.6 8.0 0.00 0.00 0.00 65 1011.3
20260509172620 23 68 1.6 8.0 0.00 0.00 0.00 65 1011.3
20260509172441 23 108 1.6 6.4 0.00 0.00 0.00 67 1011.3
20260509172219 23 212 1.6 4.8 0.00 0.00 0.00 67 1011.4
20260509172019 23 224 1.6 4.8 0.00 0.00 0.00 66 1011.4
20260509171819 23 227 0.0 4.8 0.00 0.00 0.00 66 1011.4
20260509171641 23 228 0.0 4.8 0.00 0.00 0.00 66 1011.4
20260509171420 23 233 0.0 4.8 0.00 0.00 0.00 65 1011.4
20260509171219 23 254 0.0 1.6 0.00 0.00 0.00 66 1011.4
20260509171020 23 64 1.6 3.2 0.00 0.00 0.00 65 1011.4
20260509170820 23 54 1.6 3.2 0.00 0.00 0.00 65 1011.4
20260509170620 23 78 1.6 3.2 0.00 0.00 0.00 64 1011.4
20260509170421 23 174 1.6 3.2 0.00 0.00 0.00 65 1011.4
20260509170220 23 216 1.6 3.2 0.00 0.00 0.00 62 1011.4
20260509170020 23 227 1.6 3.2 0.00 0.00 0.00 63 1011.5
20260509165842 23 221 1.6 3.2 0.00 0.00 0.00 64 1011.4
20260509165640 23 218 1.6 3.2 0.00 0.00 0.00 64 1011.5
20260509165420 23 221 1.6 3.2 0.00 0.00 0.00 66 1011.5
20260509165220 23 229 1.6 3.2 0.00 0.00 0.00 66 1011.5
20260509165020 23 235 1.6 3.2 0.00 0.00 0.00 66 1011.5
20260509164819 23 241 1.6 3.2 0.00 0.00 0.00 66 1011.5
20260509164620 23 260 1.6 4.8 0.00 0.00 0.00 65 1011.5
20260509164440 23 271 1.6 4.8 0.00 0.00 0.00 65 1011.5
20260509164240 23 278 1.6 4.8 0.00 0.00 0.00 65 1011.5
20260509164019 23 288 1.6 4.8 0.00 0.00 0.00 64 1011.5
20260509163820 23 284 1.6 4.8 0.00 0.00 0.00 64 1011.5
20260509163641 23 328 0.0 4.8 0.00 0.00 0.00 65 1011.5
20260509163419 23 338 0.0 4.8 0.00 0.00 0.00 64 1011.5
20260509163241 23 329 0.0 4.8 0.00 0.00 0.00 66 1011.5
20260509163019 23 260 0.0 3.2 0.00 0.00 0.00 65 1011.4
20260509162819 23 237 1.6 3.2 0.00 0.00 0.00 63 1011.5
20260509162621 23 240 1.6 4.8 0.00 0.00 0.00 65 1011.5
20260509162419 23 238 1.6 4.8 0.00 0.00 0.00 64 1011.5
20260509162219 23 248 1.6 4.8 0.00 0.00 0.00 67 1011.5
20260509162020 23 250 1.6 4.8 0.00 0.00 0.00 67 1011.5
20260509161819 23 259 0.0 4.8 0.00 0.00 0.00 67 1011.5
20260509161640 23 258 0.0 4.8 0.00 0.00 0.00 67 1011.5
20260509161419 23 269 0.0 4.8 0.00 0.00 0.00 67 1011.4
20260509161220 23 262 0.0 3.2 0.00 0.00 0.00 68 1011.5
20260509161020 22 279 0.0 3.2 0.00 0.00 0.00 67 1011.5
20260509160841 22 290 0.0 3.2 0.00 0.00 0.00 68 1011.5
20260509160620 22 282 0.0 3.2 0.00 0.00 0.00 69 1011.5
20260509160420 22 284 0.0 3.2 0.00 0.00 0.00 68 1011.5
20260509160220 22 298 1.6 3.2 0.00 0.00 0.00 67 1011.5
20260509160019 22 288 1.6 3.2 0.00 0.00 0.00 68 1011.4
20260509155820 22 154 1.6 3.2 0.00 0.00 0.00 68 1011.4
20260509155620 22 106 1.6 3.2 0.00 0.00 0.00 68 1011.4
20260509155419 22 266 1.6 3.2 0.00 0.00 0.00 68 1011.3
20260509155219 22 240 1.6 3.2 0.00 0.00 0.00 69 1011.4
20260509155020 22 254 1.6 3.2 0.00 0.00 0.00 68 1011.4
20260509154821 22 258 1.6 3.2 0.00 0.00 0.00 69 1011.4
20260509154620 22 258 1.6 3.2 0.00 0.00 0.00 69 1011.4
20260509154420 22 256 1.6 3.2 0.00 0.00 0.00 69 1011.4
20260509154220 22 260 1.6 3.2 0.00 0.00 0.00 68 1011.3
20260509154021 22 267 1.6 4.8 0.00 0.00 0.00 70 1011.3
20260509153820 22 273 1.6 4.8 0.00 0.00 0.00 70 1011.3
20260509153619 22 276 1.6 4.8 0.00 0.00 0.00 70 1011.3
20260509153420 22 274 1.6 4.8 0.00 0.00 0.00 70 1011.3
20260509153220 22 279 1.6 4.8 0.00 0.00 0.00 70 1011.3
20260509153021 22 296 1.6 4.8 0.00 0.00 0.00 71 1011.3
20260509152841 22 298 1.6 4.8 0.00 0.00 0.00 71 1011.3
20260509152620 22 289 1.6 6.4 0.00 0.00 0.00 71 1011.3
20260509152420 22 294 1.6 6.4 0.00 0.00 0.00 71 1011.3
20260509152220 21 291 1.6 6.4 0.00 0.00 0.00 72 1011.2
20260509152020 21 267 1.6 6.4 0.00 0.00 0.00 70 1011.2
20260509151820 22 279 1.6 6.4 0.00 0.00 0.00 69 1011.3
20260509151620 22 286 1.6 4.8 0.00 0.00 0.00 70 1011.3
20260509151420 22 278 1.6 4.8 0.00 0.00 0.00 70 1011.2
20260509151220 22 269 1.6 4.8 0.00 0.00 0.00 70 1011.2
20260509151020 22 281 1.6 4.8 0.00 0.00 0.00 71 1011.1
20260509150820 22 237 1.6 6.4 0.00 0.00 0.00 71 1011.2
20260509150620 21 236 1.6 6.4 0.00 0.00 0.00 71 1011.2
20260509150420 21 234 1.6 6.4 0.00 0.00 0.00 71 1011.2
20260509150219 21 235 1.6 6.4 0.00 0.00 0.00 72 1011.1
20260509150020 21 240 1.6 6.4 0.00 0.00 0.00 71 1011.1
20260509145840 21 251 1.6 3.2 0.00 0.00 0.00 72 1011.1
20260509145641 21 253 1.6 3.2 0.00 0.00 0.00 72 1011.1
20260509145420 21 258 1.6 3.2 0.00 0.00 0.00 73 1011.1
20260509145220 21 249 1.6 4.8 0.00 0.00 0.00 73 1011.1
20260509145019 21 254 1.6 4.8 0.00 0.00 0.00 73 1011.2
20260509144841 21 244 1.6 4.8 0.00 0.00 0.00 74 1011.2
20260509144641 20 241 1.6 4.8 0.00 0.00 0.00 73 1011.2
20260509144420 20 252 1.6 4.8 0.00 0.00 0.00 73 1011.2
20260509144241 20 274 1.6 4.8 0.00 0.00 0.00 74 1011.2
20260509144020 20 248 1.6 4.8 0.00 0.00 0.00 75 1011.1
20260509143820 20 246 1.6 4.8 0.00 0.00 0.00 74 1011.1
20260509143619 20 243 1.6 4.8 0.00 0.00 0.00 73 1011.1
20260509143420 20 237 1.6 4.8 0.00 0.00 0.00 74 1011.1
20260509143221 20 228 1.6 4.8 0.00 0.00 0.00 74 1010.9
20260509143041 20 229 1.6 4.8 0.00 0.00 0.00 76 1010.9
20260509142820 20 241 1.6 9.7 0.00 0.00 0.00 77 1011.0
20260509142641 20 257 1.6 9.7 0.00 0.00 0.00 76 1011.0
20260509142441 20 256 1.6 9.7 0.00 0.00 0.00 75 1011.0
20260509142220 20 249 1.6 9.7 0.00 0.00 0.00 75 1011.0
20260509142020 20 256 1.6 9.7 0.00 0.00 0.00 75 1011.0
20260509141820 20 258 1.6 9.7 0.00 0.00 0.00 74 1010.9
20260509141641 20 246 1.6 4.8 0.00 0.00 0.00 75 1010.9
20260509141420 20 253 1.6 4.8 0.00 0.00 0.00 76 1010.8
20260509141241 20 259 1.6 4.8 0.00 0.00 0.00 75 1010.8
20260509141020 20 253 1.6 4.8 0.00 0.00 0.00 75 1010.8
20260509140841 20 248 1.6 4.8 0.00 0.00 0.00 75 1010.8
20260509140620 20 253 1.6 4.8 0.00 0.00 0.00 76 1010.8
20260509140420 20 253 1.6 4.8 0.00 0.00 0.00 76 1010.8
20260509140222 20 260 1.6 3.2 0.00 0.00 0.00 76 1010.8
20260509140020 20 261 1.6 3.2 0.00 0.00 0.00 76 1010.8
20260509135821 20 263 1.6 3.2 0.00 0.00 0.00 76 1010.8
20260509135620 20 266 1.6 3.2 0.00 0.00 0.00 77 1010.8
20260509135441 20 260 1.6 3.2 0.00 0.00 0.00 77 1010.7
20260509135220 20 242 1.6 4.8 0.00 0.00 0.00 76 1010.8
20260509135020 20 240 1.6 4.8 0.00 0.00 0.00 76 1010.8
20260509134820 20 236 1.6 4.8 0.00 0.00 0.00 76 1010.8
20260509134620 20 222 1.6 4.8 0.00 0.00 0.00 78 1010.8
20260509134420 19 219 1.6 4.8 0.00 0.00 0.00 78 1010.7
20260509134241 19 228 1.6 4.8 0.00 0.00 0.00 79 1010.8
20260509134041 19 226 1.6 6.4 0.00 0.00 0.00 79 1010.8
20260509133841 18 227 1.6 6.4 0.00 0.00 0.00 80 1010.8
20260509133641 18 228 1.6 8.0 0.00 0.00 0.00 79 1010.8
20260509133441 18 229 1.6 8.0 0.00 0.00 0.00 79 1010.9
20260509133241 18 226 1.6 8.0 0.00 0.00 0.00 79 1010.9
20260509133020 18 225 1.6 8.0 0.00 0.00 0.00 79 1010.9
20260509132820 18 226 1.6 8.0 0.00 0.00 0.00 79 1010.8
20260509132620 18 221 1.6 3.2 0.00 0.00 0.00 80 1010.9
20260509132420 18 218 1.6 3.2 0.00 0.00 0.00 80 1010.9
20260509132220 18 219 1.6 4.8 0.00 0.00 0.00 80 1010.9
20260509132020 18 220 1.6 4.8 0.00 0.00 0.00 81 1011.0
20260509131841 18 220 1.6 4.8 0.00 0.00 0.00 82 1011.0
20260509131620 17 222 1.6 4.8 0.00 0.00 0.00 82 1011.0
20260509131441 17 223 1.6 4.8 0.00 0.00 0.00 82 1011.0
20260509131220 17 227 1.6 4.8 0.00 0.00 0.00 83 1011.1
20260509131020 17 230 1.6 4.8 0.00 0.00 0.00 83 1011.0
20260509130841 17 229 1.6 4.8 0.00 0.00 0.00 83 1011.0
20260509130620 17 232 1.6 8.0 0.00 0.00 0.00 84 1011.1
20260509130420 16 234 1.6 8.0 0.00 0.00 0.00 84 1011.1
20260509130220 16 232 1.6 8.0 0.00 0.00 0.00 84 1011.0
20260509130020 16 229 1.6 8.0 0.00 0.00 0.00 84 1011.0
20260509125820 16 229 1.6 8.0 0.00 0.03 0.00 84 1011.0
20260509125620 16 230 1.6 4.8 0.00 0.03 0.00 84 1011.0
20260509125441 16 227 1.6 6.4 0.00 0.03 0.00 85 1011.0
20260509125220 16 223 0.0 6.4 0.00 0.03 0.00 86 1010.8
20260509125020 16 224 0.0 6.4 0.00 0.03 0.00 86 1010.8
20260509124840 16 223 0.0 6.4 0.00 0.03 0.00 86 1010.7
20260509124641 16 217 0.0 6.4 0.00 0.03 0.00 86 1010.7
20260509124419 16 213 0.0 3.2 0.00 0.03 0.00 86 1010.8
20260509124220 15 0 0.0 0.0 0.00 0.03 0.00 86 1010.8
20260509124019 15 0 0.0 0.0 0.00 0.03 0.00 86 1010.9
20260509123820 15 0 0.0 0.0 0.00 0.03 0.00 87 1010.9
20260509123620 15 0 0.0 0.0 0.00 0.03 0.00 86 1010.9
20260509123420 15 0 0.0 0.0 0.00 0.03 0.00 86 1010.8
20260509123220 15 0 0.0 0.0 0.00 0.03 0.00 87 1010.8
20260509123019 15 0 0.0 0.0 0.00 0.03 0.00 87 1010.7
20260509122841 15 0 0.0 0.0 0.00 0.03 0.00 87 1010.7
20260509122620 15 0 0.0 0.0 0.00 0.03 0.00 87 1010.7
20260509122420 15 0 0.0 0.0 0.00 0.03 0.00 87 1010.7
20260509122221 15 0 0.0 0.0 0.00 0.03 0.00 87 1010.6
20260509122020 15 0 0.0 0.0 0.00 0.03 0.00 87 1010.6
20260509121841 15 0 0.0 0.0 0.00 0.03 0.00 88 1010.6
20260509121619 15 0 0.0 0.0 0.00 0.03 0.00 88 1010.6
20260509121420 15 0 0.0 0.0 0.00 0.03 0.00 88 1010.5
20260509121220 15 0 0.0 0.0 0.00 0.03 0.00 88 1010.4
20260509121041 15 0 0.0 0.0 0.00 0.03 0.00 88 1010.4
20260509120820 15 0 0.0 0.0 0.00 0.03 0.00 88 1010.3
20260509120641 15 0 0.0 0.0 0.00 0.03 0.00 88 1010.3
20260509120420 15 0 0.0 0.0 0.00 0.03 0.00 88 1010.3
20260509120220 15 0 0.0 0.0 0.00 0.03 0.00 88 1010.3
20260509120020 15 0 0.0 0.0 0.00 0.03 0.00 88 1010.3
20260509115819 15 0 0.0 0.0 0.00 0.03 0.00 87 1010.2
20260509115621 14 0 0.0 0.0 0.00 0.03 0.00 87 1010.1
20260509115420 14 0 0.0 0.0 0.00 0.03 0.00 87 1010.0
20260509115220 14 0 0.0 0.0 0.00 0.03 0.00 87 1009.9
20260509115020 14 0 0.0 0.0 0.00 0.03 0.00 87 1009.9
20260509114820 14 0 0.0 0.0 0.00 0.03 0.00 87 1009.9
20260509114620 14 0 0.0 0.0 0.00 0.03 0.00 87 1009.7
20260509114420 14 0 0.0 0.0 0.00 0.03 0.00 87 1009.7
20260509114220 14 0 0.0 0.0 0.00 0.03 0.00 87 1009.6
20260509114020 14 0 0.0 0.0 0.00 0.03 0.00 87 1009.6
20260509113841 14 0 0.0 0.0 0.00 0.03 0.00 87 1009.6
20260509113620 14 0 0.0 0.0 0.00 0.03 0.00 87 1009.6
20260509113421 14 0 0.0 0.0 0.00 0.03 0.00 87 1009.6
20260509113220 14 0 0.0 0.0 0.00 0.03 0.00 87 1009.6
20260509113020 14 0 0.0 0.0 0.00 0.03 0.00 87 1009.6
20260509112820 14 0 0.0 0.0 0.00 0.03 0.00 87 1009.5
20260509112620 14 0 0.0 0.0 0.00 0.03 0.00 87 1009.5
20260509112420 14 0 0.0 0.0 0.00 0.03 0.00 87 1009.6
20260509112220 14 0 0.0 0.0 0.00 0.03 0.00 87 1009.6
20260509112020 14 0 0.0 0.0 0.00 0.03 0.00 87 1009.6
20260509111841 14 0 0.0 0.0 0.00 0.03 0.00 87 1009.6
20260509111620 14 0 0.0 0.0 0.00 0.03 0.00 87 1009.7
20260509111420 14 0 0.0 0.0 0.00 0.03 0.00 87 1009.6
20260509111220 14 0 0.0 0.0 0.00 0.03 0.00 87 1009.6
20260509111041 14 0 0.0 0.0 0.00 0.03 0.00 87 1009.6
20260509110841 14 0 0.0 0.0 0.00 0.03 0.00 87 1009.6
20260509110620 14 0 0.0 0.0 0.00 0.03 0.00 87 1009.7
20260509110420 14 0 0.0 0.0 0.00 0.03 0.00 87 1009.6
20260509110241 14 0 0.0 0.0 0.00 0.03 0.00 87 1009.7
20260509110020 14 0 0.0 0.0 0.00 0.03 0.00 87 1009.7
20260509105841 14 0 0.0 0.0 0.00 0.03 0.00 87 1009.6
20260509105620 14 0 0.0 0.0 0.00 0.03 0.00 87 1009.5
20260509105441 14 0 0.0 0.0 0.00 0.03 0.00 87 1009.4
20260509105220 14 0 0.0 0.0 0.00 0.03 0.00 87 1009.4
20260509105020 14 0 0.0 0.0 0.00 0.03 0.00 87 1009.4
20260509104820 14 0 0.0 0.0 0.00 0.03 0.00 87 1009.3
20260509104620 14 0 0.0 0.0 0.00 0.03 0.00 87 1009.4
20260509104420 14 0 0.0 0.0 0.00 0.03 0.00 86 1009.4
20260509104220 14 0 0.0 0.0 0.00 0.03 0.00 86 1009.3
20260509104020 14 0 0.0 0.0 0.00 0.03 0.00 86 1009.3
20260509103820 14 0 0.0 0.0 0.00 0.03 0.00 86 1009.3
20260509103620 14 0 0.0 0.0 0.00 0.03 0.00 86 1009.3
20260509103420 14 0 0.0 0.0 0.00 0.03 0.00 86 1009.3
20260509103220 14 0 0.0 0.0 0.00 0.03 0.00 86 1009.3
20260509103020 14 0 0.0 0.0 0.00 0.03 0.00 86 1009.3
20260509102820 14 0 0.0 0.0 0.00 0.03 0.00 86 1009.3
20260509102620 14 0 0.0 0.0 0.00 0.03 0.00 86 1009.3
20260509102421 14 0 0.0 0.0 0.00 0.03 0.00 86 1009.4
20260509102220 14 0 0.0 0.0 0.00 0.03 0.00 86 1009.4
20260509102019 14 0 0.0 0.0 0.00 0.03 0.00 86 1009.4
20260509101820 14 0 0.0 0.0 0.00 0.03 0.00 86 1009.6
20260509101641 14 0 0.0 0.0 0.00 0.03 0.00 86 1009.6
20260509101420 14 0 0.0 0.0 0.00 0.03 0.00 86 1009.7
20260509101220 14 0 0.0 0.0 0.00 0.03 0.00 86 1009.7
20260509101020 14 0 0.0 0.0 0.00 0.03 0.00 86 1009.7
20260509100820 14 0 0.0 0.0 0.00 0.03 0.00 86 1009.7
20260509100641 14 0 0.0 0.0 0.00 0.03 0.00 86 1009.8
20260509100420 14 0 0.0 0.0 0.00 0.03 0.00 85 1009.6
20260509100220 14 0 0.0 0.0 0.00 0.03 0.00 85 1009.4
20260509100043 14 0 0.0 0.0 0.00 0.03 0.00 85 1009.4
20260509095820 14 0 0.0 0.0 0.00 0.03 0.00 85 1009.4
20260509095641 14 0 0.0 0.0 0.00 0.03 0.00 85 1009.4
20260509095420 14 0 0.0 0.0 0.00 0.03 0.00 85 1009.6
20260509095220 14 0 0.0 0.0 0.00 0.03 0.00 85 1009.6
20260509095020 14 0 0.0 0.0 0.00 0.03 0.00 85 1009.6
20260509094820 14 0 0.0 0.0 0.00 0.03 0.00 86 1009.7
20260509094620 14 0 0.0 0.0 0.00 0.03 0.00 85 1009.7
20260509094441 14 0 0.0 0.0 0.00 0.03 0.00 85 1009.6
20260509094241 14 0 0.0 0.0 0.00 0.03 0.00 85 1009.6
20260509094020 14 0 0.0 0.0 0.00 0.03 0.00 85 1009.7
20260509093820 14 0 0.0 0.0 0.00 0.03 0.00 85 1009.7
20260509093620 14 0 0.0 0.0 0.00 0.03 0.00 85 1009.7
20260509093420 14 0 0.0 0.0 0.00 0.03 0.00 85 1009.8
20260509093220 14 0 0.0 0.0 0.00 0.03 0.00 85 1009.8
20260509093041 14 0 0.0 0.0 0.00 0.03 0.00 85 1010.0
20260509092820 14 0 0.0 0.0 0.00 0.03 0.00 85 1010.0
20260509092620 14 0 0.0 0.0 0.00 0.03 0.00 85 1010.0
20260509092419 14 0 0.0 0.0 0.00 0.03 0.00 85 1009.8
20260509092241 14 0 0.0 0.0 0.00 0.03 0.00 85 1009.8
20260509092041 14 0 0.0 0.0 0.00 0.03 0.00 85 1009.8
20260509091820 14 0 0.0 0.0 0.00 0.03 0.00 85 1009.8
20260509091641 14 0 0.0 0.0 0.00 0.03 0.00 85 1009.9
20260509091420 14 0 0.0 0.0 0.00 0.03 0.00 85 1009.9
20260509091220 14 0 0.0 0.0 0.00 0.03 0.00 85 1009.8
20260509091020 14 0 0.0 0.0 0.00 0.03 0.00 85 1009.9
20260509090841 14 0 0.0 0.0 0.00 0.03 0.00 84 1009.9
20260509090620 14 0 0.0 0.0 0.00 0.03 0.00 84 1010.0
20260509090420 14 0 0.0 0.0 0.00 0.03 0.00 84 1010.0
20260509090220 14 0 0.0 0.0 0.00 0.03 0.00 85 1010.0
20260509090020 14 0 0.0 0.0 0.00 0.03 0.00 85 1010.2
20260509085820 14 0 0.0 0.0 0.00 0.03 0.00 85 1010.3
20260509085641 14 0 0.0 0.0 0.00 0.03 0.00 84 1010.3
20260509085441 14 0 0.0 0.0 0.00 0.03 0.00 84 1010.3
20260509085241 14 0 0.0 0.0 0.00 0.03 0.00 84 1010.2
20260509085020 14 0 0.0 0.0 0.00 0.03 0.00 84 1010.3
20260509084820 14 0 0.0 0.0 0.00 0.03 0.00 84 1010.3
20260509084620 14 0 0.0 0.0 0.00 0.03 0.00 84 1010.4
20260509084420 14 0 0.0 0.0 0.00 0.03 0.00 84 1010.3
20260509084220 14 0 0.0 0.0 0.00 0.03 0.00 83 1010.3
20260509084019 14 0 0.0 0.0 0.00 0.03 0.00 83 1010.4
20260509083820 14 0 0.0 0.0 0.00 0.03 0.00 83 1010.3
20260509083620 14 0 0.0 0.0 0.00 0.03 0.00 83 1010.4
20260509083420 14 257 0.0 1.6 0.00 0.03 0.00 83 1010.6
20260509083220 15 257 0.0 1.6 0.00 0.03 0.00 83 1010.6
20260509083020 15 257 0.0 1.6 0.00 0.03 0.00 83 1010.6
20260509082820 15 257 0.0 1.6 0.00 0.03 0.00 83 1010.6
20260509082641 15 257 0.0 1.6 0.00 0.03 0.00 83 1010.6
20260509082421 15 254 0.0 1.6 0.00 0.03 0.00 83 1010.6
20260509082241 15 254 0.0 1.6 0.00 0.03 0.00 83 1010.7
20260509082020 15 254 0.0 1.6 0.00 0.03 0.00 83 1010.7
20260509081820 15 254 0.0 1.6 0.00 0.03 0.00 83 1010.7
20260509081620 15 251 0.0 1.6 0.00 0.03 0.00 83 1010.8
20260509081420 15 0 0.0 0.0 0.00 0.03 0.00 83 1010.6
20260509081220 15 0 0.0 0.0 0.00 0.03 0.00 83 1010.6
20260509081020 15 0 0.0 0.0 0.00 0.03 0.00 82 1010.5
20260509080820 15 0 0.0 0.0 0.00 0.03 0.00 82 1010.4
20260509080620 15 0 0.0 0.0 0.00 0.03 0.00 82 1010.3
20260509080420 15 0 0.0 0.0 0.00 0.03 0.00 82 1010.3
20260509080220 15 0 0.0 0.0 0.00 0.03 0.00 82 1010.3
20260509080020 15 0 0.0 0.0 0.00 0.03 0.00 82 1010.2
20260509075820 15 0 0.0 0.0 0.00 0.03 0.00 81 1010.3
20260509075620 15 0 0.0 0.0 0.00 0.03 0.00 81 1010.3
20260509075421 15 0 0.0 0.0 0.00 0.03 0.00 81 1010.4
20260509075241 15 214 0.0 1.6 0.00 0.03 0.00 81 1010.4
20260509075041 15 214 0.0 1.6 0.00 0.03 0.00 81 1010.4
20260509074820 15 214 0.0 1.6 0.00 0.03 0.00 81 1010.5
20260509074641 15 215 0.0 1.6 0.00 0.03 0.00 81 1010.5
20260509074420 15 215 0.0 1.6 0.00 0.03 0.00 81 1010.5
20260509074241 15 215 0.0 1.6 0.00 0.03 0.00 81 1010.5
20260509074020 15 216 0.0 3.2 0.00 0.03 0.00 81 1010.5
20260509073820 15 219 0.0 3.2 0.00 0.03 0.00 81 1010.5
20260509073620 15 220 0.0 3.2 0.00 0.03 0.00 81 1010.5
20260509073420 15 220 0.0 3.2 0.00 0.03 0.00 80 1010.6
20260509073221 15 220 0.0 3.2 0.00 0.03 0.00 80 1010.6
20260509073020 15 225 0.0 1.6 0.00 0.03 0.00 80 1010.6
20260509072820 15 0 0.0 0.0 0.00 0.03 0.00 80 1010.5
20260509072620 15 0 0.0 0.0 0.00 0.03 0.00 80 1010.5
20260509072420 15 219 0.0 1.6 0.00 0.03 0.00 80 1010.5
20260509072220 15 219 0.0 1.6 0.00 0.03 0.00 80 1010.4
20260509072020 15 219 0.0 1.6 0.00 0.03 0.00 80 1010.4
20260509071820 15 219 0.0 1.6 0.00 0.03 0.00 79 1010.4
20260509071620 15 219 0.0 1.6 0.00 0.03 0.00 79 1010.2
20260509071421 15 0 0.0 0.0 0.00 0.03 0.00 79 1010.2
20260509071220 15 0 0.0 0.0 0.00 0.03 0.00 79 1010.2
20260509071020 15 0 0.0 0.0 0.00 0.03 0.00 79 1010.2
20260509070820 15 0 0.0 0.0 0.00 0.03 0.00 79 1010.2
20260509070621 15 0 0.0 0.0 0.00 0.03 0.00 79 1010.3
20260509070441 15 0 0.0 0.0 0.00 0.03 0.00 78 1010.3
20260509070220 15 0 0.0 0.0 0.00 0.03 0.00 78 1010.3
20260509070020 15 0 0.0 0.0 0.00 0.03 0.00 78 1010.3
20260509065820 15 0 0.0 0.0 0.00 0.03 0.00 78 1010.3
20260509065620 15 0 0.0 0.0 0.00 0.03 0.00 78 1010.4
20260509065441 15 0 0.0 0.0 0.00 0.03 0.00 77 1010.3
20260509065241 15 0 0.0 0.0 0.00 0.03 0.00 77 1010.3
20260509065020 15 0 0.0 0.0 0.00 0.03 0.00 77 1010.4
20260509064820 15 0 0.0 0.0 0.00 0.03 0.00 77 1010.5
20260509064620 15 206 0.0 1.6 0.00 0.03 0.00 77 1010.5
20260509064420 15 206 0.0 1.6 0.00 0.03 0.00 77 1010.5
20260509064221 15 206 0.0 1.6 0.00 0.03 0.00 77 1010.5
20260509064020 15 206 0.0 1.6 0.00 0.03 0.00 77 1010.6
20260509063820 15 206 0.0 1.6 0.00 0.03 0.00 77 1010.6
20260509063620 15 207 0.0 1.6 0.00 0.03 0.00 76 1010.6
20260509063441 15 0 0.0 0.0 0.00 0.03 0.00 76 1010.7
20260509063241 15 0 0.0 0.0 0.00 0.03 0.00 76 1010.8
20260509063020 15 0 0.0 0.0 0.00 0.03 0.00 76 1010.9
20260509062841 15 0 0.0 0.0 0.00 0.03 0.00 76 1010.9
20260509062620 15 0 0.0 0.0 0.00 0.03 0.00 76 1010.9
20260509062441 15 0 0.0 0.0 0.00 0.03 0.00 76 1010.9
20260509062220 15 0 0.0 0.0 0.00 0.03 0.00 76 1011.0
20260509062020 15 0 0.0 0.0 0.00 0.03 0.00 76 1011.1
20260509061820 15 221 0.0 1.6 0.00 0.03 0.00 76 1011.1
20260509061620 15 220 0.0 1.6 0.00 0.03 0.00 75 1011.0
20260509061420 15 220 0.0 1.6 0.00 0.03 0.00 75 1011.1
20260509061241 15 220 0.0 1.6 0.00 0.03 0.00 75 1011.1
20260509061041 15 220 0.0 1.6 0.00 0.03 0.00 75 1011.1
20260509060821 15 216 0.0 1.6 0.00 0.03 0.00 75 1011.1
20260509060620 15 214 0.0 1.6 0.00 0.03 0.00 75 1011.0
20260509060420 15 213 0.0 1.6 0.00 0.03 0.00 75 1011.1
20260509060220 15 212 0.0 1.6 0.00 0.03 0.00 75 1011.1
20260509060020 15 212 0.0 1.6 0.00 0.03 0.00 75 1011.1
20260509055820 15 211 0.0 1.6 0.00 0.03 0.00 75 1011.1
20260509055621 15 211 0.0 1.6 0.00 0.03 0.00 75 1011.1
20260509055420 15 211 0.0 1.6 0.00 0.03 0.00 75 1011.1
20260509055220 15 211 0.0 1.6 0.00 0.03 0.00 75 1011.0
20260509055020 15 0 0.0 0.0 0.00 0.03 0.00 75 1011.0
20260509054820 15 0 0.0 0.0 0.00 0.03 0.00 75 1011.1
20260509054620 15 0 0.0 0.0 0.00 0.03 0.00 75 1011.1
20260509054420 15 0 0.0 0.0 0.00 0.03 0.00 75 1011.2
20260509054220 15 0 0.0 0.0 0.00 0.03 0.00 75 1011.2
20260509054020 15 211 0.0 1.6 0.00 0.03 0.00 75 1011.2
20260509053841 15 211 0.0 1.6 0.00 0.03 0.00 75 1011.2
20260509053620 15 211 0.0 1.6 0.00 0.03 0.00 74 1011.1
20260509053441 15 211 0.0 1.6 0.00 0.03 0.00 74 1011.1
20260509053220 15 211 0.0 1.6 0.00 0.03 0.00 74 1011.1
20260509053021 15 211 0.0 1.6 0.00 0.03 0.00 74 1011.1
20260509052820 15 211 0.0 1.6 0.00 0.03 0.00 74 1011.2
20260509052621 15 211 0.0 1.6 0.00 0.03 0.00 74 1011.2
20260509052441 15 211 0.0 1.6 0.00 0.03 0.00 74 1011.1
20260509052220 15 211 0.0 1.6 0.00 0.03 0.00 74 1011.2
20260509052020 15 210 0.0 1.6 0.00 0.03 0.00 74 1011.2
20260509051820 15 210 0.0 1.6 0.00 0.03 0.00 74 1011.1
20260509051620 15 210 0.0 1.6 0.00 0.03 0.00 74 1011.1
20260509051441 15 210 0.0 1.6 0.00 0.03 0.00 75 1011.1
20260509051220 15 210 0.0 1.6 0.00 0.03 0.00 75 1011.1
20260509051020 15 210 0.0 1.6 0.00 0.03 0.00 75 1011.1
20260509050820 14 210 0.0 1.6 0.00 0.03 0.00 75 1011.1
20260509050620 14 0 0.0 0.0 0.00 0.03 0.00 75 1011.1
20260509050420 14 0 0.0 0.0 0.00 0.03 0.00 75 1011.1
20260509050241 14 0 0.0 0.0 0.00 0.03 0.00 75 1011.1
20260509050021 14 0 0.0 0.0 0.00 0.03 0.00 75 1011.1
20260509045842 14 0 0.0 0.0 0.00 0.03 0.03 75 1011.1
20260509045620 14 0 0.0 0.0 0.00 0.03 0.03 75 1011.1
20260509045441 14 0 0.0 0.0 0.00 0.03 0.03 75 1011.1
20260509045220 14 0 0.0 0.0 0.00 0.03 0.03 74 1011.2
20260509045020 14 0 0.0 0.0 0.00 0.03 0.03 75 1011.2
20260509044820 14 0 0.0 0.0 0.00 0.03 0.03 74 1011.2
20260509044620 14 0 0.0 0.0 0.00 0.03 0.03 74 1011.2
20260509044420 14 0 0.0 0.0 0.00 0.03 0.03 74 1011.2
20260509044241 14 0 0.0 0.0 0.00 0.03 0.03 74 1011.1
20260509044041 14 0 0.0 0.0 0.00 0.03 0.03 74 1011.0
20260509043841 14 0 0.0 0.0 0.00 0.03 0.03 73 1010.9
20260509043641 14 0 0.0 0.0 0.00 0.03 0.03 73 1010.9
20260509043420 14 0 0.0 0.0 0.00 0.03 0.03 73 1011.0
20260509043220 14 0 0.0 0.0 0.00 0.03 0.03 73 1010.9
20260509043020 14 0 0.0 0.0 0.00 0.03 0.03 73 1010.9
20260509042820 14 0 0.0 0.0 0.00 0.03 0.03 73 1010.9
20260509042620 14 0 0.0 0.0 0.00 0.03 0.03 73 1010.9
20260509042420 14 0 0.0 0.0 0.00 0.03 0.03 73 1011.0
20260509042241 14 0 0.0 0.0 0.00 0.03 0.03 72 1011.0
20260509042041 15 0 0.0 0.0 0.00 0.03 0.03 72 1011.0
20260509041841 15 0 0.0 0.0 0.00 0.03 0.03 72 1010.9
20260509041620 15 0 0.0 0.0 0.00 0.03 0.03 72 1011.0
20260509041421 15 0 0.0 0.0 0.00 0.03 0.03 72 1011.1
20260509041220 15 0 0.0 0.0 0.00 0.03 0.03 72 1011.1
20260509041020 15 0 0.0 0.0 0.00 0.03 0.03 72 1011.1
20260509040820 15 0 0.0 0.0 0.00 0.03 0.03 71 1011.1
20260509040620 15 0 0.0 0.0 0.00 0.03 0.03 71 1011.1
20260509040420 15 0 0.0 0.0 0.00 0.03 0.03 71 1011.2
20260509040220 15 0 0.0 0.0 0.00 0.03 0.03 71 1011.1
20260509040020 15 0 0.0 0.0 0.00 0.03 0.03 71 1011.1
20260509035841 15 0 0.0 0.0 0.00 0.03 0.03 71 1011.1
20260509035620 15 0 0.0 0.0 0.00 0.03 0.03 71 1011.2
20260509035441 15 0 0.0 0.0 0.00 0.03 0.03 71 1011.2
20260509035220 14 0 0.0 0.0 0.00 0.03 0.03 71 1011.2
20260509035020 14 0 0.0 0.0 0.00 0.03 0.03 70 1011.2
20260509034820 14 0 0.0 0.0 0.00 0.03 0.03 70 1011.2
20260509034620 14 0 0.0 0.0 0.00 0.03 0.03 70 1011.2
20260509034421 14 0 0.0 0.0 0.00 0.03 0.03 70 1011.2
20260509034220 15 0 0.0 0.0 0.00 0.03 0.03 70 1011.2
20260509034020 15 0 0.0 0.0 0.00 0.03 0.03 69 1011.2
20260509033820 15 0 0.0 0.0 0.00 0.03 0.03 69 1011.2
20260509033641 15 0 0.0 0.0 0.00 0.03 0.03 69 1011.2
20260509033420 15 0 0.0 0.0 0.00 0.03 0.03 69 1011.2
20260509033220 15 0 0.0 0.0 0.00 0.03 0.03 69 1011.2
20260509033020 15 0 0.0 0.0 0.00 0.03 0.03 69 1011.2
20260509032820 15 0 0.0 0.0 0.00 0.03 0.03 69 1011.3
20260509032620 15 0 0.0 0.0 0.00 0.03 0.03 69 1011.3
20260509032420 15 0 0.0 0.0 0.00 0.03 0.03 69 1011.3
20260509032220 15 0 0.0 0.0 0.00 0.03 0.03 69 1011.3
20260509032020 15 0 0.0 0.0 0.00 0.03 0.03 69 1011.3
20260509031820 15 0 0.0 0.0 0.00 0.03 0.03 69 1011.3
20260509031641 15 0 0.0 0.0 0.00 0.03 0.03 69 1011.3
20260509031420 15 0 0.0 0.0 0.00 0.03 0.03 68 1011.4
20260509031221 15 0 0.0 0.0 0.00 0.03 0.03 69 1011.4
20260509031020 15 0 0.0 0.0 0.00 0.03 0.03 69 1011.5
20260509030820 15 0 0.0 0.0 0.00 0.03 0.03 67 1011.4
20260509030620 15 0 0.0 0.0 0.00 0.03 0.03 67 1011.4
20260509030420 15 0 0.0 0.0 0.00 0.03 0.03 67 1011.4
20260509030220 15 0 0.0 0.0 0.00 0.03 0.03 67 1011.3
20260509030020 15 0 0.0 0.0 0.00 0.03 0.03 68 1011.4
20260509025820 15 0 0.0 0.0 0.00 0.03 0.03 67 1011.4
20260509025620 15 0 0.0 0.0 0.00 0.03 0.03 67 1011.4
20260509025443 15 0 0.0 0.0 0.00 0.03 0.03 67 1011.4
20260509025220 15 0 0.0 0.0 0.00 0.03 0.03 67 1011.4
20260509025041 15 0 0.0 0.0 0.00 0.03 0.03 67 1011.4
20260509024820 15 0 0.0 0.0 0.00 0.03 0.03 67 1011.4
20260509024620 15 0 0.0 0.0 0.00 0.03 0.03 67 1011.4
20260509024420 15 0 0.0 0.0 0.00 0.03 0.03 66 1011.4
20260509024220 15 0 0.0 0.0 0.00 0.03 0.03 66 1011.5
20260509024041 15 0 0.0 0.0 0.00 0.03 0.03 66 1011.4
20260509023820 15 0 0.0 0.0 0.00 0.03 0.03 66 1011.4
20260509023620 15 0 0.0 0.0 0.00 0.03 0.03 67 1011.4
20260509023420 15 0 0.0 0.0 0.00 0.03 0.03 67 1011.4
20260509023241 15 0 0.0 0.0 0.00 0.03 0.03 67 1011.4
20260509023020 15 0 0.0 0.0 0.00 0.03 0.03 67 1011.3
20260509022820 15 0 0.0 0.0 0.00 0.03 0.03 67 1011.3
20260509022621 16 0 0.0 0.0 0.00 0.03 0.03 67 1011.4
20260509022420 16 0 0.0 0.0 0.00 0.03 0.03 66 1011.3
20260509022241 16 0 0.0 0.0 0.00 0.03 0.03 66 1011.4
20260509022041 16 0 0.0 0.0 0.00 0.03 0.03 65 1011.4
20260509021820 16 0 0.0 0.0 0.00 0.03 0.03 65 1011.3
20260509021641 16 0 0.0 0.0 0.00 0.03 0.03 65 1011.3
20260509021420 16 0 0.0 0.0 0.00 0.03 0.03 65 1011.3
20260509021220 16 0 0.0 0.0 0.00 0.03 0.03 65 1011.4
20260509021020 16 0 0.0 0.0 0.00 0.03 0.03 65 1011.4
20260509020820 16 0 0.0 0.0 0.00 0.03 0.03 65 1011.4
20260509020621 16 0 0.0 0.0 0.00 0.03 0.03 65 1011.4
20260509020420 16 0 0.0 0.0 0.00 0.03 0.03 66 1011.4
20260509020220 16 0 0.0 0.0 0.00 0.03 0.03 65 1011.3
20260509020020 16 0 0.0 0.0 0.00 0.03 0.03 65 1011.3
20260509015820 16 0 0.0 0.0 0.00 0.03 0.03 65 1011.3
20260509015620 16 0 0.0 0.0 0.00 0.03 0.03 65 1011.3
20260509015441 16 0 0.0 0.0 0.00 0.03 0.03 65 1011.3
20260509015220 16 0 0.0 0.0 0.00 0.03 0.03 65 1011.3
20260509015041 16 0 0.0 0.0 0.00 0.03 0.03 65 1011.3
20260509014820 16 0 0.0 0.0 0.00 0.03 0.03 64 1011.2
20260509014620 16 0 0.0 0.0 0.00 0.03 0.03 64 1011.2
20260509014420 16 0 0.0 0.0 0.00 0.03 0.03 64 1011.2
20260509014220 16 0 0.0 0.0 0.00 0.03 0.03 64 1011.2
20260509014020 16 0 0.0 0.0 0.00 0.03 0.03 64 1011.2
20260509013820 16 0 0.0 0.0 0.00 0.03 0.03 64 1011.2
20260509013620 16 0 0.0 0.0 0.00 0.03 0.03 64 1011.2
20260509013441 16 0 0.0 0.0 0.00 0.03 0.03 64 1011.3
20260509013220 16 0 0.0 0.0 0.00 0.03 0.03 64 1011.2
20260509013021 17 0 0.0 0.0 0.00 0.03 0.03 64 1011.2
20260509012841 17 0 0.0 0.0 0.00 0.03 0.03 64 1011.2
20260509012620 17 0 0.0 0.0 0.00 0.03 0.03 64 1011.2
20260509012441 17 0 0.0 0.0 0.00 0.03 0.03 64 1011.2
20260509012220 17 0 0.0 0.0 0.00 0.03 0.03 64 1011.2
20260509012020 17 0 0.0 0.0 0.00 0.03 0.03 64 1011.1
20260509011841 17 0 0.0 0.0 0.00 0.03 0.03 64 1011.2
20260509011620 17 0 0.0 0.0 0.00 0.03 0.03 63 1011.1
20260509011420 17 0 0.0 0.0 0.00 0.03 0.03 62 1011.1
20260509011220 17 0 0.0 0.0 0.00 0.03 0.03 62 1011.1
20260509011041 17 0 0.0 0.0 0.00 0.03 0.03 62 1011.2
20260509010841 17 0 0.0 0.0 0.00 0.03 0.03 62 1011.2
20260509010620 17 0 0.0 0.0 0.00 0.03 0.03 62 1011.2
20260509010420 17 0 0.0 0.0 0.00 0.03 0.03 62 1011.1
20260509010220 18 0 0.0 0.0 0.00 0.03 0.03 62 1011.1
20260509010020 18 0 0.0 0.0 0.00 0.03 0.03 62 1011.1
20260509005820 18 0 0.0 0.0 0.00 0.03 0.03 62 1011.1
20260509005641 18 0 0.0 0.0 0.00 0.03 0.03 61 1011.1
20260509005420 18 0 0.0 0.0 0.00 0.03 0.03 61 1011.1
20260509005241 18 0 0.0 0.0 0.00 0.03 0.03 61 1011.1
20260509005041 18 0 0.0 0.0 0.00 0.03 0.03 61 1011.2
20260509004820 18 0 0.0 0.0 0.00 0.03 0.03 60 1011.2
20260509004641 18 0 0.0 0.0 0.00 0.03 0.03 60 1011.3
20260509004420 18 0 0.0 0.0 0.00 0.03 0.03 60 1011.3
20260509004241 18 0 0.0 0.0 0.00 0.03 0.03 60 1011.3
20260509004020 18 0 0.0 0.0 0.00 0.03 0.03 60 1011.3
20260509003841 19 0 0.0 0.0 0.00 0.03 0.03 59 1011.4
20260509003641 19 0 0.0 0.0 0.00 0.03 0.03 59 1011.4
20260509003441 19 0 0.0 0.0 0.00 0.03 0.03 59 1011.5
20260509003220 19 0 0.0 0.0 0.00 0.03 0.03 58 1011.5
20260509003020 19 0 0.0 0.0 0.00 0.03 0.03 58 1011.5
20260509002821 19 0 0.0 0.0 0.00 0.03 0.03 58 1011.6
20260509002620 20 0 0.0 0.0 0.00 0.03 0.03 57 1011.6
20260509002420 20 0 0.0 0.0 0.00 0.03 0.03 57 1011.5
20260509002220 20 0 0.0 0.0 0.00 0.03 0.03 57 1011.5
20260509002020 20 0 0.0 0.0 0.00 0.03 0.03 56 1011.5
20260509001820 20 0 0.0 0.0 0.00 0.03 0.03 56 1011.5
20260509001620 20 0 0.0 0.0 0.00 0.03 0.03 56 1011.5
20260509001420 20 0 0.0 0.0 0.00 0.03 0.03 55 1011.5
20260509001220 20 199 0.0 1.6 0.00 0.03 0.03 55 1011.5
20260509001020 20 199 0.0 1.6 0.00 0.03 0.03 55 1011.5
20260509000820 20 204 0.0 1.6 0.00 0.03 0.03 55 1011.5
20260509000641 20 204 0.0 1.6 0.00 0.03 0.03 54 1011.5
20260509000420 21 209 0.0 1.6 0.00 0.03 0.03 54 1011.5
20260509000221 21 214 0.0 1.6 0.00 0.03 0.03 54 1011.5
20260509000021 21 214 0.0 1.6 0.00 0.03 0.03 53 1011.6
20260508235841 21 214 0.0 1.6 0.00 0.03 0.03 53 1011.5
20260508235620 21 214 0.0 1.6 0.00 0.03 0.03 52 1011.6
20260508235441 21 214 0.0 1.6 0.00 0.03 0.03 52 1011.6
20260508235220 21 213 0.0 1.6 0.00 0.03 0.03 52 1011.6
20260508235020 21 213 0.0 1.6 0.00 0.03 0.03 51 1011.6
20260508234841 21 213 0.0 1.6 0.00 0.03 0.03 51 1011.6
20260508234641 21 213 0.0 1.6 0.00 0.03 0.03 52 1011.7
20260508234420 21 177 0.0 1.6 0.00 0.03 0.03 51 1011.7
20260508234220 21 177 0.0 1.6 0.00 0.03 0.03 51 1011.8
20260508234020 21 174 0.0 1.6 0.00 0.03 0.03 51 1011.8
20260508233820 21 188 0.0 1.6 0.00 0.03 0.03 50 1011.8
20260508233620 21 185 0.0 1.6 0.00 0.03 0.03 50 1011.8
20260508233420 21 189 0.0 1.6 0.00 0.03 0.03 50 1011.8
20260508233220 21 189 0.0 1.6 0.00 0.03 0.03 49 1011.8
20260508233043 21 189 0.0 1.6 0.00 0.03 0.03 49 1011.9
20260508232841 21 167 0.0 1.6 0.00 0.03 0.03 49 1011.9
20260508232620 21 172 0.0 1.6 0.00 0.03 0.03 49 1011.9
20260508232420 21 172 0.0 1.6 0.00 0.03 0.03 49 1012.0
20260508232220 21 172 0.0 1.6 0.00 0.03 0.03 48 1012.0
20260508232020 21 171 0.0 1.6 0.00 0.03 0.03 48 1012.0
20260508231820 21 171 0.0 1.6 0.00 0.03 0.03 48 1012.1
20260508231641 22 171 0.0 1.6 0.00 0.03 0.03 48 1012.1
20260508231441 22 0 0.0 0.0 0.00 0.03 0.03 48 1012.2
20260508231220 22 0 0.0 0.0 0.00 0.03 0.03 48 1012.2
20260508231041 22 169 0.0 1.6 0.00 0.03 0.03 48 1012.2
20260508230820 22 170 0.0 1.6 0.00 0.03 0.03 48 1012.2
20260508230620 22 165 0.0 1.6 0.00 0.03 0.03 46 1012.2
20260508230420 22 174 0.0 1.6 0.00 0.03 0.03 47 1012.3
20260508230220 22 182 0.0 1.6 0.00 0.03 0.03 45 1012.3
20260508230020 22 186 0.0 1.6 0.00 0.03 0.03 46 1012.3
20260508225820 22 190 0.0 1.6 0.00 0.03 0.03 46 1012.4
20260508225620 22 211 0.0 1.6 0.00 0.03 0.03 47 1012.4
20260508225420 22 205 0.0 1.6 0.00 0.03 0.03 47 1012.4
20260508225220 22 194 0.0 1.6 0.00 0.03 0.03 48 1012.4
20260508225020 22 196 1.6 1.6 0.00 0.03 0.03 48 1012.3
20260508224821 22 190 1.6 3.2 0.00 0.03 0.03 47 1012.4
20260508224620 22 186 1.6 3.2 0.00 0.03 0.03 47 1012.4
20260508224420 22 194 1.6 3.2 0.00 0.03 0.03 46 1012.4
20260508224220 22 183 1.6 3.2 0.00 0.03 0.03 46 1012.4
20260508224020 22 181 1.6 3.2 0.00 0.03 0.03 46 1012.4
20260508223820 22 181 1.6 3.2 0.00 0.03 0.03 45 1012.4
20260508223620 22 182 1.6 3.2 0.00 0.03 0.03 45 1012.5
20260508223420 22 187 1.6 4.8 0.00 0.03 0.03 45 1012.4
20260508223220 22 195 1.6 4.8 0.00 0.03 0.03 46 1012.4
20260508223041 22 189 1.6 4.8 0.00 0.03 0.03 45 1012.5
20260508222820 22 190 1.6 4.8 0.00 0.03 0.03 44 1012.4
20260508222641 22 197 1.6 4.8 0.00 0.03 0.03 45 1012.4
20260508222420 22 195 1.6 4.8 0.00 0.03 0.03 47 1012.4
20260508222220 22 190 1.6 4.8 0.00 0.03 0.03 45 1012.4
20260508222020 22 194 1.6 4.8 0.00 0.03 0.03 45 1012.3
20260508221820 22 188 1.6 4.8 0.00 0.03 0.03 45 1012.3
20260508221641 22 174 1.6 4.8 0.00 0.03 0.03 46 1012.3
20260508221420 22 165 1.6 4.8 0.00 0.03 0.03 45 1012.3
20260508221220 22 168 1.6 4.8 0.00 0.03 0.03 45 1012.3
20260508221020 22 177 1.6 4.8 0.00 0.03 0.03 44 1012.3
20260508220841 22 180 1.6 4.8 0.00 0.03 0.03 45 1012.3
20260508220641 22 192 1.6 4.8 0.00 0.03 0.03 46 1012.3
20260508220420 22 216 1.6 4.8 0.00 0.03 0.03 46 1012.3
20260508220241 22 222 1.6 4.8 0.00 0.03 0.03 46 1012.3
20260508220020 22 223 1.6 4.8 0.00 0.03 0.03 46 1012.3
20260508215841 22 220 1.6 4.8 0.00 0.03 0.03 46 1012.4
20260508215641 22 212 1.6 4.8 0.00 0.03 0.03 45 1012.3
20260508215420 22 209 1.6 3.2 0.00 0.03 0.03 45 1012.3
20260508215220 22 199 0.0 3.2 0.00 0.03 0.03 48 1012.3
20260508215020 22 189 0.0 3.2 0.00 0.03 0.03 46 1012.3
20260508214820 22 192 0.0 3.2 0.00 0.03 0.03 45 1012.3
20260508214620 22 198 1.6 3.2 0.00 0.03 0.03 46 1012.3
20260508214420 22 205 1.6 3.2 0.00 0.03 0.03 45 1012.4
20260508214220 22 212 1.6 3.2 0.00 0.03 0.03 46 1012.4
20260508214041 22 214 1.6 3.2 0.00 0.03 0.03 45 1012.3
20260508213820 22 213 0.0 3.2 0.00 0.03 0.03 43 1012.4
20260508213620 22 211 0.0 3.2 0.00 0.03 0.03 45 1012.4
20260508213420 22 208 0.0 3.2 0.00 0.03 0.03 45 1012.5
20260508213220 22 207 0.0 3.2 0.00 0.03 0.03 46 1012.5
20260508213020 22 209 0.0 3.2 0.00 0.03 0.03 46 1012.6
20260508212841 22 213 1.6 4.8 0.00 0.03 0.03 47 1012.6
20260508212620 22 219 1.6 4.8 0.00 0.03 0.03 47 1012.6
20260508212420 22 221 1.6 4.8 0.00 0.03 0.03 45 1012.5
20260508212241 22 220 1.6 4.8 0.00 0.03 0.03 46 1012.5
20260508212041 22 218 1.6 4.8 0.00 0.03 0.03 46 1012.6
20260508211821 22 218 1.6 4.8 0.00 0.03 0.03 47 1012.6
20260508211620 22 227 1.6 4.8 0.00 0.03 0.03 47 1012.7
20260508211420 22 227 1.6 4.8 0.00 0.03 0.03 46 1012.7
20260508211221 22 217 1.6 4.8 0.00 0.03 0.03 46 1012.7
20260508211020 22 207 1.6 4.8 0.00 0.03 0.03 47 1012.7
20260508210820 22 206 1.6 4.8 0.00 0.03 0.03 45 1012.7
20260508210641 22 197 1.6 4.8 0.00 0.03 0.03 48 1012.8
20260508210420 22 198 1.6 3.2 0.00 0.03 0.03 46 1012.8
20260508210220 22 212 1.6 3.2 0.00 0.03 0.03 48 1012.8
20260508210020 22 232 1.6 3.2 0.00 0.03 0.03 48 1012.9
20260508205820 22 233 1.6 3.2 0.00 0.03 0.03 46 1012.9
20260508205620 22 229 1.6 4.8 0.00 0.03 0.03 48 1012.9
20260508205420 22 215 1.6 4.8 0.00 0.03 0.03 47 1012.9
20260508205220 22 218 1.6 4.8 0.00 0.03 0.03 47 1013.0
20260508205020 22 218 1.6 6.4 0.00 0.03 0.03 45 1013.0
20260508204820 22 215 1.6 6.4 0.00 0.03 0.03 46 1013.0
20260508204641 22 211 0.0 6.4 0.00 0.03 0.03 47 1013.0
20260508204420 22 211 0.0 6.4 0.00 0.03 0.03 47 1013.0
20260508204220 22 202 0.0 6.4 0.00 0.03 0.03 46 1013.0
20260508204020 22 197 1.6 3.2 0.00 0.03 0.03 47 1013.1
20260508203841 22 196 1.6 4.8 0.00 0.03 0.03 46 1013.1
20260508203641 22 226 1.6 4.8 0.00 0.03 0.03 46 1013.2
20260508203420 22 223 1.6 4.8 0.00 0.03 0.03 47 1013.2
20260508203220 22 223 1.6 4.8 0.00 0.03 0.03 48 1013.2
20260508203041 22 221 1.6 6.4 0.00 0.03 0.03 45 1013.3
20260508202820 22 212 1.6 6.4 0.00 0.03 0.03 46 1013.2
20260508202620 22 205 1.6 6.4 0.00 0.03 0.03 46 1013.3
20260508202421 22 207 1.6 6.4 0.00 0.03 0.03 46 1013.3
20260508202221 22 212 1.6 6.4 0.00 0.03 0.03 47 1013.3
20260508202020 22 221 1.6 4.8 0.00 0.03 0.03 46 1013.3
20260508201820 22 229 1.6 4.8 0.00 0.03 0.03 47 1013.3
20260508201620 22 231 1.6 8.0 0.00 0.03 0.03 46 1013.4
20260508201420 22 229 1.6 8.0 0.00 0.03 0.03 48 1013.5
20260508201241 22 224 1.6 8.0 0.00 0.03 0.03 45 1013.5
20260508201020 22 220 1.6 8.0 0.00 0.03 0.03 47 1013.6
20260508200820 22 215 1.6 8.0 0.00 0.03 0.03 46 1013.6
20260508200620 22 209 1.6 4.8 0.00 0.03 0.03 46 1013.6
20260508200420 22 205 1.6 4.8 0.00 0.03 0.03 45 1013.6
20260508200241 22 195 0.0 3.2 0.00 0.03 0.03 47 1013.7
20260508200020 22 188 0.0 3.2 0.00 0.03 0.03 47 1013.7
20260508195841 22 202 0.0 3.2 0.00 0.03 0.03 47 1013.7
20260508195620 22 230 0.0 3.2 0.00 0.03 0.03 48 1013.8
20260508195420 22 243 0.0 3.2 0.00 0.03 0.03 50 1013.8
20260508195220 22 246 0.0 3.2 0.00 0.03 0.03 49 1013.8
20260508195020 22 243 0.0 3.2 0.00 0.05 0.03 47 1013.9
20260508194820 22 238 1.6 3.2 0.00 0.05 0.03 48 1013.9
20260508194641 22 227 1.6 4.8 0.00 0.05 0.03 51 1014.0
20260508194420 22 216 1.6 6.4 0.00 0.05 0.03 51 1014.0
20260508194220 22 219 1.6 6.4 0.00 0.05 0.03 48 1014.0
20260508194020 22 211 1.6 6.4 0.00 0.05 0.03 47 1014.1
20260508193841 22 209 1.6 6.4 0.00 0.05 0.03 45 1014.2
20260508193641 22 208 1.6 6.4 0.00 0.05 0.03 45 1014.2
20260508193420 22 205 1.6 6.4 0.00 0.05 0.03 46 1014.2
20260508193220 22 199 1.6 4.8 0.00 0.05 0.03 49 1014.2
20260508193020 22 214 1.6 3.2 0.00 0.05 0.03 47 1014.2
20260508192820 22 216 1.6 3.2 0.00 0.05 0.03 48 1014.3
20260508192620 21 219 1.6 4.8 0.00 0.05 0.03 48 1014.2
20260508192420 21 217 1.6 4.8 0.00 0.05 0.03 48 1014.2
20260508192220 21 214 1.6 4.8 0.00 0.05 0.03 49 1014.4
20260508192041 21 212 1.6 6.4 0.00 0.05 0.03 48 1014.4
20260508191820 21 214 1.6 8.0 0.00 0.05 0.03 48 1014.4
20260508191620 21 215 1.6 8.0 0.00 0.05 0.03 48 1014.5
20260508191420 21 213 1.6 8.0 0.00 0.05 0.03 47 1014.5
20260508191241 21 202 1.6 8.0 0.00 0.05 0.03 46 1014.5
20260508191041 21 200 1.6 8.0 0.00 0.05 0.03 48 1014.5
20260508190842 21 198 1.6 8.0 0.00 0.05 0.03 49 1014.6
20260508190620 21 185 1.6 6.4 0.00 0.05 0.03 49 1014.6
20260508190420 21 184 1.6 6.4 0.00 0.05 0.03 48 1014.6
20260508190220 21 190 3.2 6.4 0.00 0.05 0.03 50 1014.6